Weather History for Norwood, MA

Change the Weather History Date:

Tuesday, October 18, 2011

  Actual Average Record
Temperature  
Mean Temperature 56 °F -  
Max Temperature 70 °F 58 °F 77 °F (1998)
Min Temperature 44 °F 35 °F 24 °F (1997)
Degree Days  
Heating Degree Days 8    
Growing Degree Days 6 (Base 50)    
Moisture  
Dew Point 39 °F    
Average Humidity 58    
Maximum Humidity 90    
Minimum Humidity 24    
Precipitation  
Precipitation 0.00 in - - ()
Sea Level Pressure  
Sea Level Pressure 29.84 in    
Wind  
Wind Speed 4 mph (WSW)    
Max Wind Speed 10 mph    
Max Gust Speed -    
Visibility 10 miles    
Events      
Averages and records for this station are not official NWS values.
T = Trace of Precipitation, MM = Missing Value Source: NWS Daily Summary

Daily Weather History Graph

Daily Weather History Graph

Search for Another Location

Airport:

Trip Planner

Search our weather history database for the weather conditions in past years. The results will help you decide how hot, cold, wet, or windy it might be!

Date:

Astronomy

Oct. 18, 2011 Rise Set
Actual Time 7:00 AM EDT 5:58 PM EDT
Civil Twilight 6:32 AM EDT 6:26 PM EDT
Nautical Twilight 5:59 AM EDT 6:59 PM EDT
Astronomical Twilight 5:27 AM EDT 7:31 PM EDT
Moon 10:32 PM EDT (10/18) 12:53 PM EDT (10/18)
Length of Visible Light 11h 54m
Length of Day
10h 58m
Waning Gibbous, 65% of the Moon is Illuminated
Oct 18
Waning Gibbous
Oct 19
Last Quarter
Oct 26
New
Nov 2
First Quarter
Nov 10
Full

Hourly Weather History & Observations

Time (EDT) Temp. Dew Point Humidity Pressure Visibility Wind Dir Wind Speed Gust Speed Precip Events Conditions
12:53 AM 55.9 °F 41.0 °F 57% 29.73 in 10.0 mi Variable 4.6 mph - N/A   Clear
1:53 AM 53.1 °F 39.9 °F 61% 29.73 in 10.0 mi WSW 4.6 mph - N/A   Clear
2:53 AM 52.0 °F 39.0 °F 61% 29.74 in 10.0 mi WSW 3.5 mph - N/A   Clear
3:53 AM 44.1 °F 39.9 °F 85% 29.75 in 10.0 mi Calm Calm - N/A   Clear
5:53 AM 46.9 °F 42.1 °F 83% 29.78 in 10.0 mi Calm Calm - N/A   Clear
6:53 AM 48.0 °F 42.1 °F 80% 29.80 in 10.0 mi Calm Calm - N/A   Clear
7:53 AM 54.0 °F 39.0 °F 57% 29.83 in 10.0 mi WSW 4.6 mph - N/A   Mostly Cloudy
8:53 AM 55.9 °F 37.0 °F 49% 29.86 in 10.0 mi WSW 8.1 mph - N/A   Overcast
9:53 AM 57.9 °F 37.0 °F 46% 29.84 in 10.0 mi Variable 3.5 mph - N/A   Overcast
11:53 AM 62.1 °F 37.9 °F 41% 29.86 in 10.0 mi Variable 3.5 mph - N/A   Mostly Cloudy
12:53 PM 66.0 °F 36.0 °F 33% 29.85 in 10.0 mi WNW 6.9 mph - N/A   Partly Cloudy
1:53 PM 66.0 °F 33.1 °F 29% 29.83 in 10.0 mi SSW 10.4 mph - N/A   Overcast
2:53 PM 68.0 °F 35.1 °F 30% 29.83 in 10.0 mi West 5.8 mph - N/A   Overcast
3:53 PM 69.1 °F 30.9 °F 24% 29.83 in 10.0 mi SW 9.2 mph - N/A   Clear
4:53 PM 68.0 °F 34.0 °F 28% 29.85 in 10.0 mi SW 3.5 mph - N/A   Clear
5:53 PM 61.0 °F 39.0 °F 44% 29.87 in 10.0 mi Calm Calm - N/A   Clear
6:53 PM 55.9 °F 42.1 °F 60% 29.89 in 10.0 mi Calm Calm - N/A   Clear
7:53 PM 50.0 °F 43.0 °F 77% 29.90 in 10.0 mi Calm Calm - N/A   Clear
9:53 PM 46.9 °F 43.0 °F 86% 29.93 in 10.0 mi Calm Calm - N/A   Clear
10:53 PM 46.9 °F 44.1 °F 90% 29.94 in 10.0 mi Calm Calm - N/A   Mostly Cloudy
11:53 PM 48.0 °F 45.0 °F 89% 29.95 in 10.0 mi Calm Calm - N/A   Overcast